Startseite
Über Mich
AHP4
Galerie
Sehschlangen
Tourenbuch
Bookmarks
Elektronik
Bewertung
Geschichten
[Tagesmessung] [Jahreswerte] [Information]

Messwerte vom 29.09.2022

Die letzten Messwerte von 23:58:47 Uhr:
KategorieMesswert
Temperatur [°C]5
Luftdruck [mBar]991
Sonneneinstrahlung0
Wind [km/h]0 aus Nordost
Niederschlag [l/m²]0
rel.Luftfeucht.96.6%
CO2 [ppm]404

Diagramme
Messwerte vom 29.09.2022
Tagesaggregation
KategorieMinimumMaximumSchnittSumme
Temperatur [°C]3209.0354
Luftdruck [mBar]983991986.4667
Sonneneinstrahlung24798.7854
Wind [km/h]8
rF [%]54.196.689.23
Niederschlag [l/m²]0
CO2 [ppm]395989470.6
Einordnung alsVegetationstag

Messungen an benachbarten Tagen: Zur Jahresaggregation 2022
Tabelle aller Messwerte
UhrzeitTemperatur [°C]Luftdruck [mBar]SonneWind [km/h]RichtungRegen [l/m²]rF [%]CO2 [ppm]
00:01:47 8 984 0 0 SO 0 96.6 986
00:04:47 8 984 0 0 SO 0 96.6 975
00:07:46 8 984 0 0 SO 0 96.6 978
00:10:48 8 984 0 0 SO 0 96.6 969
00:13:47 8 984 0 0 SO 0 96.6 984
00:16:46 8 983 0 0 SO 0 96.6 983
00:19:48 8 984 0 0 SO 0 96.6 972
00:22:46 8 983 0 0 SO 0 96.6 960
00:25:48 8 984 0 0 SO 0 96.6 966
00:28:47 8 983 0 0 SO 0 96.6 967
00:31:46 8 984 0 0 SO 0 96.6 972
00:34:48 8 984 0 0 SO 0 96.6 967
00:37:49 7 984 0 0 SO 0 96.6 970
00:40:47 7 984 0 0 SO 0 96.6 954
00:43:48 7 984 0 0 SO 0 96.6 961
00:46:45 7 984 0 0 SO 0 96.6 967
00:49:48 7 984 0 0 SO 0 96.6 975
00:52:48 7 984 0 0 SO 0 96.6 977
00:55:47 7 984 0 0 SO 0 96.6 981
00:58:46 7 984 0 0 SO 0 96.6 978
01:01:47 7 984 0 0 SO 0 96.6 967
01:04:48 7 984 0 0 SO 0 96.6 951
01:07:47 7 984 0 0 SO 0 96.6 949
01:10:47 7 984 0 0 SO 0 96.6 956
01:13:49 7 984 0 0 SO 0 96.6 968
01:16:46 7 984 0 0 SO 0 96.6 984
01:19:46 7 984 0 0 SO 0 96.6 989
01:22:47 7 984 0 0 SO 0 96.6 603
01:25:47 7 985 0 0 SO 0 96.6 603
01:28:46 7 984 0 0 SO 0 96.6 597
01:31:47 7 984 0 0 SW 0 96.6 591
01:34:44 7 984 0 0 S 0 96.6 591
01:37:46 7 984 0 0 S 0 96.6 589
01:40:47 7 984 0 0 SO 0 96.6 594
01:43:45 7 983 0 0 S 0 96.6 589
01:46:44 7 984 0 0 S 0 96.6 589
01:49:46 7 985 0 0 S 0 96.6 582
01:52:47 7 984 0 0 S 0 96.6 580
01:55:45 7 984 0 0 O 0 96.6 574
01:58:46 7 984 0 0 O 0 96.6 565
02:01:47 7 984 0 0 O 0 96.6 564
02:04:46 7 984 0 0 O 0 96.6 571
02:07:48 7 984 0 0 O 0 96.6 584
02:10:44 7 984 0 0 O 0 96.6 594
02:13:45 7 983 0 0 O 0 96.6 597
02:16:45 7 983 0 0 O 0 96.6 588
02:19:47 7 984 0 0 O 0 96.6 585
02:22:46 7 984 0 0 O 0 96.6 573
02:25:45 7 984 0 0 O 0 96.6 570
02:28:46 7 984 0 0 O 0 96.6 571
02:31:46 7 984 0 0 W 0 96.6 568
02:34:46 7 984 0 0 W 0 96.6 565
02:37:47 7 984 0 0 W 0 96.6 562
02:40:46 7 984 0 0 W 0 96.6 556
02:43:46 7 984 0 0 W 0 96.6 557
02:46:49 7 984 0 0 W 0 96.6 555
02:49:46 7 983 0 0 W 0 96.6 559
02:52:45 7 984 0 0 W 0 96.6 565
02:55:46 7 984 0 0 W 0 96.6 564
02:58:46 7 984 0 0 W 0 96.6 571
03:01:45 7 984 0 0 W 0 96.6 556
03:05:05 7 984 0 0 W 0 96.6 553
03:07:47 6 984 0 0 W 0 96.6 554
03:10:47 6 984 0 0 W 0 96.6 553
03:13:47 6 983 0 0 W 0 96.6 558
03:16:47 6 984 0 0 W 0 96.6 553
03:19:44 6 984 0 0 W 0 96.6 557
03:22:46 6 984 0 0 W 0 96.6 557
03:25:45 6 984 0 0 W 0 96.6 550
03:28:46 6 984 0 0 W 0 96.6 546
03:31:46 6 984 0 0 W 0 96.6 539
03:34:48 6 984 0 0 W 0 96.6 536
03:37:46 6 984 0 0 W 0 96.6 533
03:40:46 6 984 0 0 W 0 96.6 535
03:43:46 6 984 0 0 W 0 96.6 529
03:46:44 6 984 0 0 W 0 96.6 533
03:49:47 6 984 0 0 W 0 96.6 535
03:52:46 6 984 0 0 W 0 96.6 533
03:55:46 6 984 0 0 W 0 96.6 527
03:58:46 6 984 0 0 W 0 96.6 521
04:01:44 6 984 0 0 W 0 96.6 524
04:04:47 6 984 0 0 W 0 96.6 525
04:07:45 5 984 0 0 W 0 96.6 530
04:10:45 5 984 0 0 W 0 96.6 535
04:13:46 5 984 0 0 W 0 96.6 529
04:16:47 5 984 0 0 W 0 96.6 521
04:19:46 5 984 0 0 W 0 96.6 518
04:22:46 5 984 0 0 W 0 96.6 515
04:25:46 5 984 0 0 SO 0 96.6 506
04:28:48 5 984 0 0 SO 0 96.6 514
04:31:47 5 984 0 0 SO 0 96.6 515
04:34:48 5 984 0 0 SO 0 96.6 521
04:37:48 5 984 0 0 SO 0 96.6 527
04:40:47 5 984 0 0 SO 0 96.6 521
04:43:46 4 984 0 0 SO 0 96.6 515
04:46:46 4 984 0 0 SO 0 96.6 512
04:49:46 4 985 0 0 SO 0 96.6 510
04:52:47 4 984 0 0 SO 0 96.6 509
04:55:46 4 984 0 0 SO 0 96.6 522
04:58:47 4 984 0 0 SO 0 96.6 524
05:01:47 4 984 0 0 SO 0 96.6 521
05:04:47 4 984 0 0 SO 0 96.6 519
05:07:46 4 984 0 0 SO 0 96.6 515
05:10:48 4 984 0 0 SO 0 96.6 506
05:13:45 4 984 0 0 SO 0 96.6 506
05:16:51 4 984 0 0 SO 0 96.6 498
05:19:49 4 984 0 0 SO 0 96.6 498
05:22:47 4 984 0 0 SO 0 96.6 495
05:25:47 4 984 0 0 SO 0 96.6 493
05:28:50 4 984 0 0 SO 0 96.6 489
05:31:47 4 984 0 0 SO 0 96.6 492
05:34:47 4 984 0 0 SO 0 96.6 495
05:37:46 4 984 0 0 SO 0 96.6 494
05:40:45 4 984 0 0 SO 0 96.6 500
05:43:48 4 984 0 0 SO 0 96.6 506
05:46:47 4 984 0 0 SO 0 96.6 507
05:49:48 4 985 0 0 SO 0 96.6 503
05:52:46 4 984 0 0 SO 0 96.6 493
05:55:47 4 984 0 0 SO 0 96.6 491
05:58:45 3 984 0 0 SO 0 96.6 483
06:01:48 3 985 0 0 SO 0 96.6 489
06:04:47 3 984 0 0 SO 0 96.6 489
06:07:47 3 984 0 0 SO 0 96.6 486
06:10:48 3 984 0 0 SO 0 96.6 480
06:13:48 3 985 0 0 SO 0 96.6 478
06:16:48 3 984 0 0 SO 0 96.6 486
06:19:47 3 985 0 0 SO 0 96.6 480
06:22:47 3 984 0 0 SO 0 96.6 471
06:25:50 3 984 0 0 SO 0 96.6 471
06:28:46 3 985 0 0 SO 0 96.6 474
06:31:47 3 984 0 0 SO 0 96.6 474
06:34:46 3 985 0 0 SO 0 96.6 472
06:37:50 3 985 0 0 SO 0 96.6 471
06:40:48 3 984 0 0 SO 0 96.6 471
06:43:47 3 985 0 0 SO 0 96.6 474
06:46:48 3 985 0 0 SO 0 96.6 469
06:49:50 3 984 0 0 SO 0 96.6 468
06:52:48 3 985 4 0 SO 0 96.6 466
06:55:47 3 985 7 0 SO 0 96.6 469
06:58:48 3 985 11 0 SO 0 96.6 471
07:01:47 3 984 18 0 SO 0 96.6 471
07:04:47 3 984 26 0 SO 0 96.6 460
07:07:48 3 984 36 0 SO 0 96.6 462
07:10:50 3 984 48 0 SO 0 96.6 460
07:13:46 3 985 60 0 SO 0 96.6 459
07:16:48 3 985 72 0 SO 0 96.6 462
07:19:49 3 985 83 0 SO 0 96.6 468
07:22:48 3 985 93 0 SO 0 96.6 468
07:25:48 3 986 103 0 SO 0 96.6 475
07:28:48 3 984 112 0 SO 0 96.6 472
07:31:47 3 984 119 0 SO 0 96.6 468
07:34:49 3 985 125 0 SO 0 96.6 460
07:37:47 3 985 131 0 SO 0 96.6 457
07:40:48 3 985 135 0 SO 0 96.6 459
07:43:50 3 985 140 0 SO 0 96.6 468
07:46:48 3 985 144 0 SO 0 96.6 463
07:49:48 3 985 147 0 SO 0 96.6 454
07:52:49 3 985 151 0 SO 0 96.6 448
07:55:49 3 985 154 0 SO 0 96.6 457
07:58:48 3 985 157 0 SO 0 96.6 462
08:01:47 3 985 159 0 SO 0 96.6 456
08:04:49 3 985 161 0 SO 0 96.6 450
08:07:50 3 985 162 0 SO 0 96.6 445
08:10:48 3 986 165 0 SO 0 96.6 448
08:13:46 3 985 167 0 SO 0 96.6 441
08:16:50 3 985 167 0 SO 0 96.6 451
08:19:48 3 985 169 0 SO 0 96.6 454
08:22:47 4 985 171 0 SO 0 96.6 465
08:25:49 4 985 172 0 SO 0 96.6 465
08:28:47 4 985 173 0 SO 0 96.6 459
08:31:48 4 986 174 0 SO 0 96.6 445
08:34:48 4 985 174 0 SO 0 96.6 433
08:37:48 4 985 175 0 O 0 96.6 442
08:40:48 4 985 176 0 O 0 96.6 442
08:43:48 4 985 176 0 O 0 96.6 439
08:46:44 4 985 177 0 O 0 96.6 436
08:49:46 4 985 177 0 O 0 96.6 436
08:52:46 4 986 177 0 O 0 96.6 439
08:55:48 5 986 177 0 O 0 96.6 442
08:58:48 5 986 139 0 O 0 96.6 442
09:01:49 5 985 141 0 O 0 96.6 408
09:04:48 5 985 179 0 S 0 96.6 401
09:07:47 5 985 180 0 S 0 96.6 407
09:10:47 5 986 180 0 S 0 96.6 407
09:13:47 5 986 180 0 S 0 96.6 407
09:16:47 6 985 180 0 SW 0 96.6 407
09:19:49 6 985 180 0 SW 0 96.6 404
09:22:49 6 985 180 0 SW 0 96.6 404
09:25:46 6 985 181 0 W 0 96.6 404
09:28:47 6 985 181 0 W 0 96.6 404
09:31:45 7 985 181 0 S 0 96.6 407
09:34:48 7 985 181 0 SO 0 96.6 407
09:37:49 7 985 182 0 SO 0 96.6 407
09:40:46 7 986 182 0 W 0 96.6 407
09:43:46 7 986 182 0 O 0 96.6 407
09:46:48 7 985 182 0 W 0 96.6 404
09:49:51 8 986 183 0 NW 0 96.6 406
09:52:47 8 986 183 0 W 0 96.6 407
09:55:48 8 986 183 0 SO 0 96.6 404
09:58:48 8 985 183 0 W 0 96.6 405
10:01:47 8 985 184 0 SO 0 96.6 407
10:04:45 8 986 184 0 S 0 96.6 404
10:07:47 8 985 184 0 NW 0 96.6 406
10:10:49 8 986 185 0 N 0 96.6 407
10:13:48 8 986 185 0 W 0 96.6 407
10:16:48 8 986 186 0 SW 0 96.6 404
10:19:48 9 986 186 0 SW 0 96.6 407
10:22:50 9 986 188 0 W 0 96.6 404
10:25:48 9 987 190 3 NO 0 96.6 406
10:28:48 9 986 198 0 SO 0 96.6 407
10:31:50 9 986 191 0 SW 0 96.6 404
10:34:50 9 985 194 0 SO 0 96.6 407
10:37:47 9 986 200 0 S 0 96.6 404
10:40:48 9 986 203 0 S 0 96.6 404
10:43:49 9 986 199 0 NW 0 96.6 404
10:46:47 9 986 203 0 O 0 96.6 407
10:49:51 10 986 200 0 NW 0 96.6 403
10:52:48 10 986 196 0 S 0 96.6 407
10:55:48 10 986 201 0 SO 0 96.6 406
10:58:46 10 986 198 0 W 0 96.6 407
11:01:48 10 987 190 0 SW 0 96.6 407
11:04:50 10 986 199 0 NW 0 96.6 407
11:07:49 10 986 200 0 NW 0 96.6 406
11:10:48 10 986 200 0 S 0 96.6 407
11:13:47 10 987 199 0 S 0 96.6 405
11:16:49 10 986 199 0 W 0 96.6 404
11:19:48 10 986 201 0 N 0 96.6 407
11:22:46 10 986 205 0 S 0 96.6 406
11:25:49 10 987 202 0 O 0 96.6 405
11:28:49 11 987 203 0 SW 0 96.6 407
11:31:49 11 987 206 2 SO 0 96.6 405
11:34:48 11 986 203 0 S 0 96.6 406
11:37:47 11 987 208 0 W 0 96.6 407
11:40:47 11 987 207 0 O 0 96.6 405
11:43:50 11 986 211 2 O 0 96.6 408
11:46:48 11 987 218 8 NO 0 96.6 407
11:49:48 12 987 215 1 W 0 96.6 407
11:52:49 12 987 219 1 SW 0 96.5 407
11:55:49 12 987 223 0 SW 0 96.5 404
11:58:49 13 986 223 2 S 0 96.6 407
12:01:47 13 987 219 1 W 0 96.4 405
12:04:49 13 987 220 1 S 0 95.3 407
12:07:50 14 987 223 3 SW 0 94.2 407
12:10:49 14 987 224 0 SO 0 93.3 404
12:13:47 15 986 222 1 W 0 93.5 404
12:16:50 15 986 220 1 SO 0 87.8 407
12:19:49 15 987 219 1 SW 0 87.3 404
12:22:47 15 987 217 0 S 0 86.4 404
12:25:48 15 987 214 0 SW 0 86.3 404
12:28:50 15 987 207 2 W 0 86.1 404
12:31:48 14 987 205 0 SO 0 86.4 404
12:34:47 14 987 206 2 SW 0 86.5 406
12:37:48 13 987 203 0 SW 0 88.7 406
12:40:47 13 986 204 1 W 0 90.3 404
12:43:47 13 987 208 0 W 0 91.2 406
12:46:46 13 987 212 0 W 0 92.7 407
12:49:49 13 987 208 0 SW 0 93.9 406
12:52:47 13 987 215 0 S 0 94.2 404
12:55:47 13 987 216 1 SW 0 94.5 404
12:58:46 14 987 215 0 S 0 94.7 406
13:01:50 15 986 216 0 O 0 92.8 407
13:04:45 16 987 220 0 S 0 92.4 407
13:07:50 17 987 214 0 S 0 91.3 404
13:10:47 17 987 215 1 W 0 84.3 404
13:13:50 18 987 208 4 NW 0 78.7 406
13:16:48 17 986 217 0 SW 0 81.7 407
13:19:49 18 987 221 0 SO 0 87.8 407
13:22:47 18 987 223 2 W 0 76.6 406
13:25:48 19 987 225 2 W 0 86.1 404
13:28:47 19 986 223 0 SW 0 75.2 407
13:31:47 20 987 217 4 S 0 74.5 407
13:34:49 20 987 221 2 SW 0 66.6 407
13:37:46 19 987 224 3 S 0 66.1 406
13:40:47 19 987 227 5 S 0 68.1 404
13:43:49 19 988 229 0 SW 0 67.6 407
13:46:47 19 987 229 3 W 0 66.3 406
13:49:48 19 987 232 3 S 0 64.9 406
13:52:49 19 987 224 4 SO 0 67.4 406
13:55:47 19 987 223 1 SO 0 67.5 406
13:58:47 18 987 229 1 NW 0 70.1 405
14:01:47 18 987 234 1 SW 0 72.2 407
14:04:48 18 987 231 3 W 0 72.6 406
14:07:32 17 987 229 0 NW 0 60.4 407
14:10:48 18 987 228 4 W 0 68.8 406
14:13:48 18 987 228 0 W 0 79.8 408
14:16:46 19 987 228 0 N 0 75.2 406
14:19:48 19 987 228 1 S 0 76.9 406
14:22:47 19 987 231 7 SW 0 74.7 407
14:25:46 20 987 177 0 NO 0 75.3 404
14:28:47 19 987 213 2 NW 0 69.8 406
14:31:48 18 987 213 0 NW 0 69.3 407
14:34:47 18 987 213 0 SW 0 71.5 404
14:37:48 19 987 215 0 NW 0 70.1 407
14:40:32 18 987 223 0 SW 0 62.3 406
14:43:49 19 987 227 0 NO 0 66.2 407
14:46:49 19 987 227 0 S 0 66.7 406
14:49:49 20 987 227 7 SW 0 60.4 404
14:52:46 20 987 247 1 SW 0 54.5 403
14:55:46 20 987 247 2 N 0 54.1 404
14:58:47 20 987 247 1 S 0 60.5 406
15:01:46 19 987 217 2 O 0 60.3 401
15:04:48 19 988 220 1 N 0 60.5 407
15:07:45 18 987 247 2 N 0 63.5 406
15:10:48 18 987 247 0 N 0 64.1 403
15:13:46 18 987 247 2 W 0 63.3 407
15:16:49 17 987 227 0 NW 0 64.4 407
15:19:49 16 987 215 0 NW 0 66.2 406
15:22:48 16 987 245 0 S 0 69.9 406
15:25:48 17 987 224 0 W 0 68.4 404
15:28:48 18 987 234 1 N 0 68.2 406
15:31:47 19 987 245 0 N 0 65.4 404
15:34:48 19 987 244 5 SO 0 63.1 403
15:37:50 19 987 229 2 NW 0 62.6 406
15:40:49 19 987 223 7 SW 0 57.7 406
15:43:48 19 987 237 0 NO 0 60.5 404
15:46:46 18 987 206 0 N 0 61.8 406
15:49:47 17 987 195 0 S 0 64.1 407
15:52:46 17 988 206 0 S 0 65.4 407
15:55:45 17 987 227 0 S 0 64.1 403
15:58:49 16 987 221 6 SW 0 64.5 406
16:01:47 16 987 246 0 SO 0 65.8 407
16:04:47 17 987 246 0 S 0 66.8 404
16:07:48 17 987 246 0 W 0 63.1 406
16:10:46 17 987 219 0 W 0 63.1 406
16:13:47 16 987 206 1 SW 0 63.3 405
16:16:46 16 987 238 0 W 0 65.1 407
16:19:47 16 987 244 0 W 0 66.2 404
16:22:49 16 987 229 0 SO 0 67 407
16:25:47 16 987 225 2 SO 0 65.3 407
16:28:48 17 987 225 0 SW 0 64.7 407
16:31:45 16 987 224 1 S 0 65.5 407
16:34:46 16 987 227 0 S 0 64.4 401
16:37:48 16 987 227 0 S 0 64.7 405
16:40:48 17 987 227 3 NW 0 63.6 406
16:43:47 16 987 223 3 S 0 60.6 403
16:46:47 16 987 221 0 W 0 60.8 404
16:49:47 16 988 219 0 W 0 63 404
16:52:47 15 987 223 0 W 0 65.7 404
16:55:47 15 987 222 0 W 0 67.2 405
16:58:48 15 987 221 0 S 0 67.9 408
17:01:48 16 987 220 0 SW 0 66.7 406
17:04:49 16 988 218 1 NW 0 65.2 403
17:07:48 16 987 216 0 S 0 64.9 408
17:10:48 15 988 219 1 SO 0 64.9 404
17:13:47 15 988 217 0 SO 0 66 407
17:16:47 15 987 219 0 S 0 67.3 407
17:19:45 14 987 222 0 S 0 67.4 407
17:22:47 14 987 222 0 S 0 68.6 404
17:25:49 14 988 223 0 S 0 69.4 407
17:28:49 14 988 221 0 SO 0 70.4 407
17:31:47 14 988 218 0 S 0 70.8 407
17:34:49 14 987 216 0 SW 0 69.4 404
17:37:49 14 987 214 0 SO 0 69.6 406
17:40:49 14 988 214 0 S 0 70 407
17:43:48 14 987 216 0 SO 0 69.8 406
17:46:48 14 988 215 0 SW 0 70.6 404
17:49:47 14 988 211 0 S 0 70.8 407
17:52:46 14 987 208 0 S 0 70.5 407
17:55:46 14 987 207 0 S 0 71.5 407
17:58:48 14 988 204 2 S 0 71.2 404
18:01:47 14 988 199 0 S 0 71.5 407
18:04:48 13 988 198 0 S 0 71.9 406
18:07:48 13 988 197 0 S 0 72.6 404
18:10:49 13 987 195 0 S 0 73.6 407
18:13:48 13 988 193 0 S 0 74.6 407
18:16:47 12 988 191 0 S 0 75.3 405
18:19:47 12 987 189 0 S 0 75.9 403
18:22:48 12 987 187 0 S 0 76.8 407
18:25:47 12 988 185 0 S 0 77.5 406
18:28:47 12 988 181 0 S 0 78.1 404
18:31:48 11 988 177 0 S 0 78.9 407
18:34:47 11 988 174 0 S 0 79.2 407
18:37:47 11 988 169 0 S 0 79.7 407
18:40:47 11 988 162 0 S 0 80.2 406
18:43:48 11 988 156 0 S 0 80.8 407
18:46:47 11 988 148 0 S 0 81.1 404
18:49:50 11 988 139 0 S 0 81.7 407
18:52:48 10 989 128 0 S 0 82 404
18:55:46 10 989 114 0 S 0 82.4 404
18:58:47 10 988 100 0 S 0 82.9 407
19:01:45 10 989 86 0 S 0 83.6 407
19:04:47 10 988 71 0 S 0 84 404
19:07:46 10 988 57 0 S 0 84.3 407
19:10:48 10 989 45 0 S 0 84.8 407
19:13:49 10 989 31 0 S 0 84.9 404
19:16:46 9 989 21 0 S 0 85.1 405
19:19:46 9 989 13 0 S 0 85.4 404
19:22:47 9 989 8 0 S 0 85.8 407
19:25:45 9 988 5 0 S 0 86.1 407
19:28:46 9 988 3 0 S 0 86.3 407
19:31:46 9 989 0 0 S 0 87.2 404
19:34:46 9 989 0 0 S 0 87.4 406
19:37:48 9 989 0 0 S 0 87.6 404
19:40:48 9 990 0 0 S 0 88.4 407
19:43:47 8 989 0 0 S 0 89.5 404
19:46:46 8 989 0 0 S 0 90 407
19:49:49 8 989 0 0 NO 0 90.8 406
19:52:46 8 989 0 0 NO 0 90.8 404
19:55:47 8 989 0 0 NO 0 90.8 404
19:58:47 8 988 0 0 NO 0 91.4 404
20:01:47 8 989 0 0 NO 0 92.4 404
20:04:48 8 989 0 0 NO 0 92.9 407
20:07:48 8 990 0 0 NO 0 93.4 407
20:10:46 8 989 0 0 O 0 93.9 404
20:13:45 8 990 0 0 O 0 94.9 406
20:16:45 8 989 0 0 O 0 94.3 406
20:19:47 8 989 0 0 O 0 94.4 405
20:22:46 8 989 0 0 O 0 94.7 404
20:25:45 8 989 0 0 O 0 94.7 404
20:28:47 8 989 0 0 O 0 95.2 407
20:31:46 7 989 0 0 O 0 95.5 406
20:34:44 7 989 0 0 O 0 95.6 407
20:37:47 7 989 0 0 O 0 95.5 395
20:40:47 7 989 0 0 O 0 95 406
20:43:47 7 989 0 0 O 0 95 407
20:46:45 7 989 0 0 O 0 95.3 404
20:49:45 7 989 0 0 O 0 95.8 405
20:52:46 7 989 0 0 O 0 96.1 404
20:55:46 7 989 0 0 O 0 96.2 407
20:58:46 7 990 0 0 O 0 96.5 404
21:01:46 7 990 0 0 O 0 96.6 407
21:04:47 7 989 0 0 O 0 96.6 404
21:07:46 7 989 0 0 O 0 96.6 407
21:10:45 7 989 0 0 O 0 96.6 404
21:13:46 7 989 0 0 O 0 96.6 407
21:16:47 7 989 0 0 O 0 96.6 404
21:19:47 7 989 0 0 O 0 96.6 408
21:22:46 7 989 0 0 O 0 96.6 401
21:25:46 7 990 0 0 O 0 96.6 406
21:28:44 7 990 0 0 O 0 96.6 404
21:31:46 7 990 0 0 O 0 96.6 404
21:34:44 7 990 0 0 O 0 96.6 407
21:37:47 6 990 0 0 NO 0 96.6 407
21:40:47 6 989 0 0 NO 0 96.6 406
21:43:47 6 990 0 0 NO 0 96.6 401
21:46:47 6 990 0 0 NO 0 96.6 407
21:49:46 6 990 0 0 NO 0 96.6 404
21:52:45 6 990 0 0 NO 0 96.6 407
21:55:47 6 990 0 0 NO 0 96.6 404
21:58:47 6 990 0 0 NO 0 96.6 407
22:01:46 6 990 0 0 NO 0 96.6 407
22:04:48 6 990 0 0 NO 0 96.6 404
22:07:46 6 989 0 0 NO 0 96.6 406
22:10:48 6 990 0 0 NO 0 96.6 404
22:13:45 6 990 0 0 NO 0 96.6 404
22:16:46 6 990 0 0 NO 0 96.6 406
22:19:46 6 990 0 0 NO 0 96.6 406
22:22:45 6 990 0 0 NO 0 96.6 406
22:25:45 6 991 0 0 NO 0 96.6 404
22:28:47 6 990 0 0 NO 0 96.6 407
22:31:47 6 990 0 0 NO 0 96.6 404
22:34:48 5 990 0 0 NO 0 96.6 404
22:37:46 5 991 0 0 NO 0 96.6 404
22:40:46 5 990 0 0 NO 0 96.6 406
22:43:45 5 991 0 0 NO 0 96.6 404
22:46:46 5 991 0 0 NO 0 96.6 404
22:49:46 5 990 0 0 NO 0 96.6 409
22:52:46 5 991 0 0 NO 0 96.6 406
22:55:45 5 991 0 0 NO 0 96.6 406
22:58:48 5 991 0 0 NO 0 96.6 407
23:01:51 5 990 0 0 NO 0 96.6 406
23:04:46 5 990 0 0 NO 0 96.6 406
23:07:48 5 990 0 0 NO 0 96.6 406
23:10:46 5 991 0 0 NO 0 96.6 406
23:13:46 5 991 0 0 NO 0 96.6 404
23:16:45 5 991 0 0 NO 0 96.6 404
23:19:46 5 991 0 0 NO 0 96.6 406
23:22:45 5 991 0 0 NO 0 96.6 407
23:25:47 5 991 0 0 NO 0 96.6 407
23:28:46 5 991 0 0 NO 0 96.6 404
23:31:47 5 991 0 0 NO 0 96.6 407
23:34:46 5 991 0 0 NO 0 96.6 407
23:37:46 5 991 0 0 NO 0 96.6 404
23:40:46 5 991 0 0 NO 0 96.6 404
23:43:46 5 991 0 0 NO 0 96.6 407
23:46:45 5 991 0 0 NO 0 96.6 404
23:49:46 5 991 0 0 NO 0 96.6 407
23:52:47 5 991 0 0 NO 0 96.6 404
23:55:46 5 991 0 0 NO 0 96.6 404
23:58:47 5 991 0 0 NO 0 96.6 404

Letzte Änderung : 22-Jul-2022
Copyright Jens Köhler, Wolfsburg, Obere Dorfstraße 10d